Probability
0 0 0 0 0 0 0 0 0 0 0 0 0 0 0 0 0 0 0 0 0 0 0 0 0 0 0 0 0 0 0 0 0 0 0 0 0 0 0 0 0 0 0 0
0 0 0 0 0 0 0 0 0 0 0 0 0 0 0 0 0 0 0 0 0 0 0 0 0 0 0 0 0 0 0 0 0 0 0 0 0 0 0 0 0 0 0 0
0 0 0 0 0 0 0 0 0 0 0 0 0 0 0 0 0 0 0 0 0 0 0 0 0 0 0 0 0 0 0 0 0 0 0 0 0 0 0 0 0 0 0 0
0 0 0 0 0 0 0 0 0 0 0 0 0 0 0 0 0 0 0 0 0 0 0 0 0 0 0 0 0 0 0 0 0 0 0 0 0 0 0 0 0 0 0 0
0 0 0 0 0 0 0 0 0 0 0 0 0 0 0 0 0 0 0 0 0 0 0 0 0 0 0 0 0 0 0 0 0 0 0 0 0 0 0 0 0 0 0 0
0 0 0 0 0 0 0 0 0 0 0 0 0 0 0 0 0 0 0 0 0 0 0 0 0 0 0 0 0 0 0 0 0 0 0 0 0 0 0 0 0 0 0 0
0 0 0 0 0 0 0 0 0 0 0 0 0 0 0 0 0 0 0 0 0 0 0 0 0 0 0 0 0 0 0 0 0 0 0 0 0 0 0 0 0 0 0 0
0 0 0 0 0 0 0 0 0 0 0 0 0 0 0 0 0 0 0 0 0 0 0 0 0 0 0 0 0 0 0 0 0 0 0 0 0 0 0 0 0 0 0 0
0 0 0 0 0 0 0 0 0 0 0 0 0 0 0 0 0 0 0 0 0 0 0 0 0 0 0 0 0 0 0 0 0 0 0 0 0 0 0 0 0 0 0 0
0 0 0 0 0 0 0 0 0 0 0 0 0 0 0 0 0 0 0 0 0 0 0 0 0 0 0 0 0 0 0 0 0 0 0 0 0 0 0 0 0 0 0 0
0 0 0 0 0 0 0 0 0 0 0 0 0 0 0 0 0 0 0 0 0 0 0 0 0 0 0 0 0 0 0 0 0 0 0 0 0 0 0 0 0 0 0 0
0 0 0 0 0 0 0 0 0 0 0 0 0 0 0 0 0 0 0 0 0 0 0 0 0 0 0 0 0 0 0 0 0 0 0 0 0 0 0 0 0 0 0 0
0 0 0 0 0 0 0 0 0 0 0 0 0 0 0 0 0 0 0 0 0 0 0 0 0 0 0 0 0 0 0 0 0 0 0 0 0 0 0 0 0 0 0 0
0 0 0 0 0 0 0 0 0 0 0 0 0 0 0 0 0 0 0 0 0 0 0 0 0 0 0 0 0 0 0 0 0 0 0 0 0 0 0 0 0 0 0 0
0 0 0 0 0 0 0 0 0 0 0 0 0 0 0 0 0 0 0 0 0 0 0 0 0 0 0 0 0 0 0 0 0 0 0 0 0 0 0 0 0 0 0 0
0 0 0 0 0 0 0 0 0 0 0 0 0 0 0 0 0 0 0 0 0 0 0 0 0 0 0 0 0 0 0 0 0 0 0 0 0 0 0 0 0 0 0 0
0 0 0 0 0 0 0 0 0 0 0 0 0 0 0 0 0 0 0 0 0 0 0 0 0 0 0 0 0 0 0 0 0 0 0 0 0 0 0 0 0 0 0 0
0 0 0 0 0 0 0 0 0 0 0 0 0 0 0 0 0 0 0 0 0 0 0 0 0 0 0 0 0 0 0 0 0 0 0 0 0 0 0 0 0 0 0 0
0 0 0 0 0 0 0 0 0 0 0 0 0 0 0 0 0 0 0 0 0 0 0 0 0 0 0 0 0 0 0 0 0 0 0 0 0 0 0 0 0 0 0 0
0 0 0 0 0 0 0 0 0 0 0 0 0 0 0 0 0 0 0 0 0 0 0 0 0 0 0 0 0 0 0 0 0 0 0 0 0 0 0 0 0 0 0 0
0 0 0 0 0 0 0 0 0 0 0 0 0 0 0 0 0 0 0 0 0 0 0 0 0 0 0 0 0 0 0 0 0 0 0 0 0 0 0 0 0 0 0 0
0 0 0 0 0 0 0 0 0 0 0 0 0 0 0 0 0 0 0 0 0 0 0 0 0 0 0 0 0 0 0 0 0 0 0 0 0 0 0 0 0 0 0 0
0 0 0 0 0 0 0 0 0 0 0 0 0 0 0 0 0 0 0 0 0 0 0 0 0 0 0 0 0 0 0 0 0 0 0 0 0 0 0 0 0 0 0 0
0 0 0 0 0 0 0 0 0 0 0 0 0 0 0 0 0 0 0 0 0 0 0 0 0 0 0 0 0 0 0 0 0 0 0 0 0 0 0 0 0 0 0 0
0 0 0 0 0 0 0 0 0 0 0 0 0 0 0 0 0 0 0 0 0 0 0 0 0 0 0 0 0 0 0 0 0 0 0 0 0 0 0 0 0 0 0 0
0 0 0 0 0 0 0 0 0 0 0 0 0 0 0 0 0 0 0 0 0 0 0 0 0 0 0 0 0 0 0 0 0 0 0 0 0 0 0 0 0 0 0 0
Wind_Speed
4 7 11 15 17 17 12 15 20 19 16 11 18 21 20 21 20 21 21 19 18 17 14 9 7 6 5 6 8 10 12 12 12 10 11 11 13 12 12 12 15 17 17 18
5 13 17 10 5 9 13 17 21 19 12 9 16 21 18 19 20 20 19 18 16 13 12 9 7 5 4 4 5 7 9 11 13 11 10 8 9 10 12 11 14 17 17 18
15 6 4 8 10 11 14 14 16 17 14 10 13 15 10 11 14 16 17 16 12 9 9 8 8 9 9 8 7 5 6 8 11 11 9 7 7 7 9 12 12 16 18 18
11 5 2 7 11 12 15 12 13 13 11 9 6 18 8 11 12 14 14 9 6 5 6 8 10 12 13 13 11 10 8 6 6 8 10 13 11 12 12 10 11 13 17 18
7 3 5 9 10 10 9 3 4 6 9 13 8 13 10 7 10 12 8 4 6 9 11 12 13 14 14 14 13 12 11 9 6 6 10 12 13 12 10 10 12 13 14 17
7 2 5 6 2 4 3 1 2 2 5 14 10 11 12 5 7 4 2 7 10 12 13 15 15 15 15 16 15 14 14 13 11 7 8 11 14 14 13 13 11 11 10 12
6 6 5 4 3 2 4 4 6 7 7 12 1 9 10 6 3 2 7 11 13 13 15 17 18 18 17 18 18 16 16 16 15 12 9 10 13 14 15 14 13 12 11 11
9 10 6 7 8 4 6 6 7 9 12 16 5 13 8 4 1 5 9 11 13 15 16 17 17 16 16 17 17 17 17 16 16 15 13 11 11 10 10 13 13 13 11 12
8 8 0 4 4 5 5 7 5 6 8 15 17 15 8 5 1 7 11 14 15 15 15 14 14 14 15 15 16 16 16 15 16 16 15 13 12 11 12 13 13 12 12 11
4 11 6 2 2 5 6 4 3 6 8 16 23 27 19 5 3 10 12 12 12 12 13 13 13 13 13 13 14 14 14 15 15 15 14 12 13 13 13 12 13 14 14 13
4 7 9 5 10 14 10 9 12 11 10 12 18 18 3 7 7 7 7 8 9 10 10 11 11 11 11 12 13 13 14 14 14 15 14 14 13 13 13 11 13 13 14 14
7 7 12 16 13 11 16 18 18 16 18 16 17 19 1 8 7 6 5 5 6 7 8 9 10 10 11 12 12 13 13 13 14 14 14 14 14 14 13 13 13 13 14 14
3 5 8 9 6 1 5 6 8 10 11 14 18 13 2 0 3 5 5 4 4 5 7 8 8 9 10 11 11 12 12 13 13 13 13 14 14 14 14 14 14 13 13 13
4 8 13 18 18 11 10 11 12 13 11 14 17 19 18 18 14 9 6 5 5 6 6 7 8 9 9 10 11 12 12 12 13 13 13 13 14 14 15 14 14 13 13 13
2 10 14 18 19 17 18 20 21 22 22 21 24 28 24 14 10 9 9 8 9 9 9 9 9 9 10 10 11 11 12 12 12 13 13 13 13 13 14 14 14 14 12 12
1 6 6 13 18 19 22 25 27 27 26 28 29 28 6 3 6 9 11 12 13 13 12 12 11 11 11 11 11 11 12 12 12 12 13 13 13 13 14 14 14 14 13 12
5 5 6 13 14 14 19 21 24 24 22 21 21 8 4 3 8 11 13 14 15 15 15 15 15 14 13 12 12 12 12 11 11 12 12 12 12 13 13 14 14 14 14 13
9 7 6 7 3 18 12 3 7 12 11 5 2 4 1 7 11 13 13 14 16 17 17 17 16 16 16 14 13 12 11 11 11 11 11 11 12 13 14 14 15 15 13 13
14 10 7 5 9 14 10 5 5 6 7 7 7 5 7 11 15 15 12 13 16 17 18 18 18 18 17 16 14 12 12 13 13 13 12 12 12 13 14 14 16 15 14 14
6 12 9 8 9 10 5 3 3 2 7 5 8 8 12 14 14 15 15 16 17 18 17 17 18 18 18 16 13 13 15 15 15 14 13 13 12 12 14 15 16 14 14 15
5 7 12 13 12 10 5 3 4 6 4 4 9 13 15 16 16 18 20 19 18 19 19 19 18 17 16 14 13 16 17 17 15 14 14 14 13 13 14 15 15 15 14 15
8 7 8 6 9 10 4 6 7 7 8 12 14 16 17 18 19 20 20 20 20 20 19 18 16 17 16 15 15 18 19 17 15 14 15 15 14 14 13 15 16 15 15 16
10 10 7 10 10 6 6 10 12 14 18 19 19 17 17 18 19 20 20 19 19 18 16 15 15 18 18 15 15 18 19 17 15 14 15 15 16 15 15 16 17 16 14 13
10 9 9 10 15 17 18 19 19 19 19 18 15 12 13 15 17 16 16 16 16 16 16 15 16 18 19 16 15 16 17 16 14 17 18 17 17 18 16 14 14 14 14 14
14 7 10 16 20 20 21 20 19 17 10 6 6 6 8 11 13 14 14 15 15 16 15 15 16 18 20 19 18 17 17 17 19 20 19 19 18 18 17 16 15 16 16 16
17 15 16 18 19 17 19 16 11 9 5 4 6 8 8 9 12 14 14 14 15 16 16 17 18 19 20 20 20 19 17 17 19 19 18 16 15 15 15 16 17 23 26 30
Wind_Direction
167 201 219 225 225 249 282 278 278 279 280 278 274 277 280 285 283 277 275 276 275 280 296 323 332 317 276 250 237 229 224 216 209 207 210 216 220 219 219 219 216 210 204 200
174 230 238 251 238 246 258 270 276 283 287 277 283 284 278 268 265 267 274 278 282 295 313 340 356 356 335 313 276 250 235 222 212 213 212 221 228 229 225 222 222 217 211 205
233 260 242 222 230 240 249 256 274 283 304 279 292 283 253 247 255 264 265 267 282 305 326 349 10 23 21 8 349 314 276 247 227 221 219 220 232 243 233 225 223 220 216 212
249 273 209 217 236 235 263 258 263 277 288 289 320 299 283 235 252 259 266 281 317 360 18 25 29 27 24 15 7 357 339 304 261 229 225 224 225 232 234 231 227 222 219 219
238 215 205 226 242 216 245 296 254 262 270 282 253 271 298 196 241 257 274 331 25 32 34 35 30 24 25 21 15 9 6 1 328 253 237 237 241 248 252 245 238 229 220 219
261 223 227 238 258 210 217 295 253 233 260 275 273 249 297 199 229 259 29 48 42 38 35 35 32 29 27 23 21 16 14 12 2 327 270 251 254 257 258 252 246 237 227 219
260 222 223 203 214 160 176 246 283 273 255 273 143 250 276 242 268 8 40 43 41 36 34 33 27 25 23 20 19 17 16 14 7 356 331 294 274 269 264 261 253 244 233 223
278 271 212 198 217 216 192 218 244 272 279 288 264 258 271 250 9 49 51 47 40 37 35 34 29 25 21 18 16 15 14 11 7 2 350 331 310 287 274 267 261 253 243 233
258 270 360 194 208 181 184 218 256 263 277 280 270 264 263 240 194 51 45 41 37 34 32 30 25 21 17 15 14 12 10 8 6 1 355 346 335 315 297 285 272 262 254 244
266 280 271 280 191 229 243 242 192 224 247 261 271 275 277 247 73 51 42 35 28 25 23 20 18 15 12 10 6 7 7 5 2 0 358 350 343 333 318 303 288 275 264 252
202 260 272 243 233 249 233 229 236 245 238 253 266 269 4 104 90 74 57 41 29 22 16 12 9 7 5 3 2 1 0 359 358 356 353 351 349 342 333 320 307 292 277 262
218 244 265 264 264 259 255 250 244 246 245 243 253 260 106 111 102 89 70 45 29 20 12 4 359 357 358 357 355 354 353 352 351 348 346 346 346 346 342 333 322 308 292 274
203 228 265 270 240 173 242 259 264 269 270 259 261 265 162 256 18 55 41 22 5 356 352 347 345 345 346 346 344 343 344 344 343 341 340 341 343 343 341 337 330 320 306 288
298 245 250 265 278 291 280 277 276 275 270 272 269 279 282 298 318 338 347 335 322 319 323 326 327 329 331 332 332 332 332 334 334 333 332 334 337 335 333 331 329 325 316 302
285 259 264 270 277 281 280 278 274 271 271 274 279 281 288 307 319 324 325 318 312 312 314 318 319 317 317 318 320 321 320 323 325 324 325 327 328 328 327 327 326 323 318 308
272 264 272 270 271 275 276 272 271 271 272 271 273 276 319 3 325 318 319 318 313 313 314 314 311 310 310 309 308 307 308 313 315 313 314 317 320 322 322 322 321 320 318 313
236 237 257 269 284 289 265 262 268 270 271 277 281 297 79 341 321 315 313 311 308 308 308 308 307 307 305 302 300 299 299 301 300 300 303 308 313 314 315 316 316 317 316 311
238 232 245 267 274 251 271 335 274 272 275 266 195 157 239 312 305 297 294 294 297 301 303 304 304 303 302 299 295 292 290 289 288 289 292 298 304 306 309 311 310 312 311 307
228 226 226 227 248 268 281 245 219 246 259 211 201 222 284 305 301 290 289 285 286 293 297 299 299 299 298 296 296 292 287 286 284 284 287 291 296 298 302 303 304 306 305 302
206 215 225 225 240 250 266 147 146 227 264 205 212 252 291 303 296 298 308 298 291 291 294 296 298 298 296 296 298 291 288 286 284 285 287 289 289 288 291 293 296 296 296 293
177 202 221 235 247 261 258 179 169 229 267 198 244 273 288 288 285 294 299 296 294 294 296 298 298 295 294 298 298 290 289 287 290 291 288 286 286 288 288 290 290 291 291 290
209 215 211 212 232 252 188 177 215 254 289 291 290 289 287 288 290 292 295 296 297 297 299 302 299 294 296 300 298 292 290 296 299 296 292 292 293 292 290 290 289 288 286 284
225 222 208 203 232 257 204 225 260 281 289 291 291 291 290 290 292 296 298 299 300 303 303 304 301 297 297 299 299 294 297 305 306 302 296 295 294 290 288 286 285 285 280 276
238 227 233 246 258 262 266 269 274 277 279 283 288 291 292 293 297 300 300 301 304 305 306 308 306 300 299 305 306 303 308 312 309 301 298 295 293 289 286 282 278 276 274 272
244 221 233 250 262 272 269 270 274 276 277 285 296 298 300 302 300 303 303 305 308 310 312 311 306 302 304 308 308 310 311 310 303 298 295 293 288 286 285 279 273 273 267 265
247 243 245 255 263 268 275 282 286 278 280 306 311 307 313 316 308 309 307 310 312 310 311 308 305 304 305 306 304 304 302 299 296 294 293 290 288 286 283 282 281 274 271 273